Location: Coopersdale
(40.3556°N, 78.9372°W)
Time: 10:19:54
(UTC+00:00)

Vanguard 1 - Pass Details

Date: 27 January 2021
Orbit: 649 x 3834 km, 34.2° (Epoch: 07 March)

Event Time Altitude Azimuth Distance (km) Brightness Sun altitude
Rises 22:13:09 0° 280° (W) 7,467 15.6 1.8°
Reaches altitude 10° 22:17:57 10° 277° (W) 6,672 15.4 1.0°
Maximum altitude 22:40:22 58° 207° (SSW) 4,105 13.5 -2.9°
Drops below altitude 10° 22:59:03 10° 134° (SE) 5,677 13.7 -6.3°
Sets 23:02:46 0° 130° (SE) 6,348 13.9 -6.9°
